| time (UTC) | temp C | wind direction | speed KPH | gust KPH | rain 1hr cm | rain 24hr cm | rain mn cm | humidity % | barometer mb |
| 20260905123034 | 20 | 45 | 0.0 | 3.2 | 0.00 | 0.25 | 0.25 | 97 | 1011.8 |
| 20260905122522 | 20 | 0 | 0.0 | 1.6 | 0.00 | 0.25 | 0.25 | 97 | 1011.7 |
| 20260905122016 | 20 | 45 | 0.0 | 1.6 | 0.00 | 0.25 | 0.25 | 97 | 1011.8 |
| 20260905121532 | 20 | 0 | 0.0 | 1.6 | 0.00 | 0.25 | 0.25 | 97 | 1011.6 |
| 20260905121018 | 20 | 45 | 0.0 | 1.6 | 0.00 | 0.25 | 0.25 | 97 | 1011.8 |
| 20260905120516 | 20 | 0 | 0.0 | 1.6 | 0.00 | 0.25 | 0.25 | 97 | 1011.7 |
| 20260905120034 | 20 | 0 | 0.0 | 1.6 | 0.00 | 0.25 | 0.25 | 97 | 1011.5 |
| 20260905115516 | 20 | 0 | 0.0 | 1.6 | 0.00 | 0.25 | 0.25 | 97 | 1011.3 |
| 20260905115015 | 20 | 0 | 0.0 | 0.0 | 0.00 | 0.25 | 0.25 | 97 | 1011.4 |
| 20260905114532 | 20 | 0 | 0.0 | 0.0 | 0.00 | 0.25 | 0.25 | 97 | 1011.4 |
| 20260905114017 | 20 | 0 | 0.0 | 0.0 | 0.00 | 0.25 | 0.25 | 97 | 1011.4 |
| 20260905113520 | 20 | 0 | 0.0 | 0.0 | 0.00 | 0.25 | 0.25 | 97 | 1011.5 |
| 20260905113034 | 20 | 0 | 0.0 | 0.0 | 0.00 | 0.25 | 0.25 | 97 | 1011.5 |
| 20260905112516 | 19 | 0 | 0.0 | 0.0 | 0.00 | 0.25 | 0.25 | 97 | 1011.4 |
| 20260905112019 | 19 | 0 | 0.0 | 0.0 | 0.00 | 0.25 | 0.25 | 97 | 1011.2 |
| 20260905111533 | 19 | 0 | 0.0 | 1.6 | 0.00 | 0.25 | 0.25 | 97 | 1011.2 |
| 20260905111021 | 19 | 0 | 0.0 | 1.6 | 0.00 | 0.25 | 0.25 | 97 | 1011.0 |
| 20260905110518 | 19 | 0 | 0.0 | 1.6 | 0.00 | 0.25 | 0.25 | 97 | 1011.0 |
| 20260905110036 | 19 | 0 | 0.0 | 0.0 | 0.00 | 0.25 | 0.25 | 97 | 1011.1 |
| 20260905105517 | 19 | 0 | 0.0 | 0.0 | 0.00 | 0.25 | 0.25 | 97 | 1011.0 |
| 20260905105015 | 19 | 0 | 0.0 | 0.0 | 0.00 | 0.25 | 0.25 | 97 | 1010.9 |
| 20260905104535 | 19 | 0 | 0.0 | 0.0 | 0.00 | 0.25 | 0.25 | 97 | 1010.9 |
| 20260905104017 | 19 | 0 | 0.0 | 0.0 | 0.00 | 0.25 | 0.25 | 97 | 1010.8 |
| 20260905103517 | 19 | 0 | 0.0 | 0.0 | 0.00 | 0.25 | 0.25 | 97 | 1010.7 |
| 20260905103042 | 19 | 0 | 0.0 | 0.0 | 0.00 | 0.25 | 0.25 | 97 | 1010.7 |
| 20260905102518 | 19 | 0 | 0.0 | 0.0 | 0.00 | 0.25 | 0.25 | 97 | 1010.7 |
| 20260905102036 | 20 | 0 | 0.0 | 0.0 | 0.00 | 0.25 | 0.25 | 97 | 1010.6 |
| 20260905101532 | 20 | 0 | 0.0 | 0.0 | 0.00 | 0.25 | 0.25 | 97 | 1010.6 |
| 20260905101016 | 20 | 0 | 0.0 | 0.0 | 0.00 | 0.25 | 0.25 | 97 | 1010.5 |
| 20260905100524 | 20 | 0 | 0.0 | 0.0 | 0.00 | 0.25 | 0.25 | 97 | 1010.5 |
| 20260905100039 | 20 | 0 | 0.0 | 0.0 | 0.00 | 0.25 | 0.25 | 97 | 1010.5 |
| 20260905095517 | 20 | 0 | 0.0 | 0.0 | 0.00 | 0.25 | 0.25 | 97 | 1010.4 |
| 20260905095017 | 20 | 0 | 0.0 | 0.0 | 0.00 | 0.25 | 0.25 | 97 | 1010.5 |
| 20260905094536 | 20 | 0 | 0.0 | 0.0 | 0.00 | 0.25 | 0.25 | 97 | 1010.6 |
| 20260905094019 | 20 | 0 | 0.0 | 0.0 | 0.00 | 0.25 | 0.25 | 97 | 1010.7 |
| 20260905093516 | 20 | 0 | 0.0 | 0.0 | 0.00 | 0.25 | 0.25 | 97 | 1010.7 |
| 20260905093047 | 20 | 0 | 0.0 | 0.0 | 0.00 | 0.25 | 0.25 | 97 | 1010.7 |
| 20260905092519 | 20 | 0 | 0.0 | 0.0 | 0.00 | 0.25 | 0.25 | 97 | 1010.7 |
| 20260905092016 | 20 | 0 | 0.0 | 0.0 | 0.00 | 0.25 | 0.25 | 97 | 1010.7 |
| 20260905091537 | 20 | 0 | 0.0 | 0.0 | 0.00 | 0.25 | 0.25 | 97 | 1010.7 |
| 20260905091022 | 20 | 0 | 0.0 | 0.0 | 0.00 | 0.25 | 0.25 | 97 | 1010.7 |
| 20260905090517 | 20 | 0 | 0.0 | 0.0 | 0.00 | 0.25 | 0.25 | 97 | 1010.7 |
| 20260905090037 | 20 | 0 | 0.0 | 0.0 | 0.00 | 0.25 | 0.25 | 97 | 1010.5 |
| 20260905085521 | 20 | 0 | 0.0 | 0.0 | 0.00 | 0.25 | 0.25 | 97 | 1010.6 |
| 20260905085015 | 20 | 0 | 0.0 | 0.0 | 0.00 | 0.25 | 0.25 | 97 | 1010.5 |
| 20260905084535 | 20 | 0 | 0.0 | 0.0 | 0.00 | 0.25 | 0.25 | 97 | 1010.6 |
| 20260905084015 | 20 | 0 | 0.0 | 0.0 | 0.00 | 0.25 | 0.25 | 97 | 1010.6 |
| 20260905083516 | 20 | 0 | 0.0 | 0.0 | 0.00 | 0.25 | 0.25 | 97 | 1010.6 |
| 20260905083033 | 21 | 0 | 0.0 | 0.0 | 0.00 | 0.25 | 0.25 | 97 | 1010.5 |
| 20260905082516 | 21 | 0 | 0.0 | 0.0 | 0.00 | 0.25 | 0.25 | 97 | 1010.4 |
| 20260905082018 | 21 | 0 | 0.0 | 0.0 | 0.00 | 0.25 | 0.25 | 97 | 1010.4 |
| 20260905081533 | 20 | 0 | 0.0 | 0.0 | 0.00 | 0.25 | 0.25 | 97 | 1010.5 |
| 20260905081016 | 21 | 0 | 0.0 | 0.0 | 0.00 | 0.25 | 0.25 | 97 | 1010.4 |
| 20260905080517 | 21 | 0 | 0.0 | 0.0 | 0.00 | 0.25 | 0.25 | 97 | 1010.6 |
| 20260905080038 | 21 | 0 | 0.0 | 0.0 | 0.00 | 0.25 | 0.25 | 97 | 1010.5 |
| 20260905075518 | 21 | 0 | 0.0 | 0.0 | 0.05 | 0.25 | 0.25 | 97 | 1010.4 |
| 20260905075018 | 21 | 0 | 0.0 | 0.0 | 0.10 | 0.25 | 0.25 | 97 | 1010.5 |
| 20260905074536 | 21 | 0 | 0.0 | 0.0 | 0.10 | 0.25 | 0.25 | 97 | 1010.6 |
| 20260905074019 | 21 | 0 | 0.0 | 0.0 | 0.10 | 0.25 | 0.25 | 97 | 1010.5 |
| 20260905073519 | 21 | 0 | 0.0 | 0.0 | 0.10 | 0.25 | 0.25 | 97 | 1010.5 |
| 20260905073035 | 21 | 0 | 0.0 | 0.0 | 0.10 | 0.25 | 0.25 | 97 | 1010.4 |
| 20260905072516 | 21 | 0 | 0.0 | 0.0 | 0.10 | 0.25 | 0.25 | 97 | 1010.4 |
| 20260905072015 | 21 | 0 | 0.0 | 0.0 | 0.10 | 0.25 | 0.25 | 97 | 1010.4 |
| 20260905071532 | 21 | 0 | 0.0 | 0.0 | 0.10 | 0.25 | 0.25 | 97 | 1010.6 |
| 20260905071021 | 21 | 0 | 0.0 | 0.0 | 0.10 | 0.25 | 0.25 | 96 | 1010.7 |
| 20260905070515 | 21 | 0 | 0.0 | 1.6 | 0.10 | 0.25 | 0.25 | 96 | 1010.7 |
| 20260905070035 | 21 | 0 | 0.0 | 1.6 | 0.10 | 0.25 | 0.25 | 97 | 1010.7 |
| 20260905065517 | 21 | 0 | 0.0 | 1.6 | 0.03 | 0.18 | 0.18 | 97 | 1010.8 |
| 20260905065016 | 21 | 0 | 0.0 | 0.0 | 0.00 | 0.15 | 0.15 | 96 | 1010.9 |
| 20260905064535 | 21 | 0 | 0.0 | 0.0 | 0.00 | 0.15 | 0.15 | 96 | 1010.8 |
| 20260905064020 | 21 | 0 | 0.0 | 0.0 | 0.03 | 0.15 | 0.15 | 96 | 1010.9 |
| 20260905063520 | 21 | 0 | 0.0 | 0.0 | 0.13 | 0.15 | 0.15 | 96 | 1010.8 |
| 20260905063033 | 21 | 0 | 0.0 | 0.0 | 0.15 | 0.15 | 0.15 | 97 | 1011.0 |
| 20260905062518 | 21 | 0 | 0.0 | 0.0 | 0.15 | 0.15 | 0.15 | 96 | 1011.0 |
| 20260905062018 | 21 | 0 | 0.0 | 0.0 | 0.15 | 0.15 | 0.15 | 96 | 1011.2 |
| 20260905061536 | 21 | 0 | 0.0 | 0.0 | 0.15 | 0.15 | 0.15 | 96 | 1011.1 |
| 20260905061017 | 21 | 0 | 0.0 | 1.6 | 0.15 | 0.15 | 0.15 | 96 | 1011.2 |
| 20260905060517 | 21 | 0 | 0.0 | 1.6 | 0.15 | 0.15 | 0.15 | 96 | 1011.1 |
| 20260905060035 | 21 | 0 | 0.0 | 1.6 | 0.15 | 0.15 | 0.15 | 96 | 1011.3 |
| 20260905055519 | 22 | 0 | 0.0 | 1.6 | 0.15 | 0.15 | 0.15 | 95 | 1011.4 |
| 20260905055024 | 22 | 0 | 0.0 | 0.0 | 0.15 | 0.15 | 0.15 | 95 | 1011.4 |
| 20260905054536 | 22 | 0 | 0.0 | 3.2 | 0.15 | 0.15 | 0.15 | 95 | 1011.4 |
| 20260905054019 | 22 | 0 | 0.0 | 3.2 | 0.10 | 0.10 | 0.10 | 95 | 1011.4 |
| 20260905053516 | 22 | 60 | 0.0 | 1.6 | 0.00 | 0.00 | 0.00 | 95 | 1011.6 |
| 20260905053037 | 22 | 0 | 0.0 | 1.6 | 0.00 | 0.00 | 0.00 | 95 | 1011.7 |
| 20260905052540 | 22 | 0 | 0.0 | 1.6 | 0.00 | 0.00 | 0.00 | 94 | 1011.5 |
| 20260905052018 | 22 | 0 | 0.0 | 1.6 | 0.00 | 0.00 | 0.00 | 94 | 1011.6 |
| 20260905051534 | 22 | 0 | 0.0 | 1.6 | 0.00 | 0.00 | 0.00 | 94 | 1011.5 |
| 20260905051017 | 23 | 0 | 0.0 | 3.2 | 0.00 | 0.00 | 0.00 | 94 | 1011.7 |
| 20260905050519 | 23 | 352 | 0.0 | 6.4 | 0.00 | 0.00 | 0.00 | 93 | 1011.6 |
| 20260905050035 | 23 | 352 | 0.0 | 9.7 | 0.00 | 0.00 | 0.00 | 93 | 1011.5 |
| 20260905045515 | 23 | 282 | 1.6 | 9.7 | 0.00 | 0.00 | 0.00 | 94 | 1011.4 |
| 20260905045015 | 23 | 0 | 0.0 | 3.2 | 0.00 | 0.00 | 0.00 | 94 | 1011.5 |
| 20260905044535 | 23 | 0 | 0.0 | 3.2 | 0.00 | 0.00 | 0.00 | 94 | 1011.5 |
| 20260905044015 | 23 | 0 | 0.0 | 1.6 | 0.00 | 0.00 | 0.00 | 94 | 1011.5 |
| 20260905043519 | 22 | 150 | 0.0 | 1.6 | 0.00 | 0.00 | 0.00 | 94 | 1011.5 |
| 20260905043031 | 22 | 150 | 0.0 | 1.6 | 0.00 | 0.00 | 0.00 | 94 | 1011.5 |
| 20260905042518 | 22 | 0 | 0.0 | 0.0 | 0.00 | 0.00 | 0.00 | 94 | 1011.5 |
| 20260905042017 | 22 | 0 | 0.0 | 0.0 | 0.00 | 0.00 | 0.00 | 94 | 1011.4 |
| 20260905041535 | 22 | 0 | 0.0 | 0.0 | 0.00 | 0.00 | 0.00 | 94 | 1011.4 |
| 20260905041015 | 22 | 0 | 0.0 | 0.0 | 0.00 | 0.00 | 0.00 | 94 | 1011.5 |
| 20260905040517 | 22 | 0 | 0.0 | 0.0 | 0.00 | 0.00 | 0.00 | 94 | 1011.5 |
| 20260905040035 | 22 | 0 | 0.0 | 0.0 | 0.00 | 0.00 | 0.00 | 94 | 1011.4 |
| 20260905035515 | 23 | 0 | 0.0 | 0.0 | 0.00 | 0.00 | 0.00 | 94 | 1011.6 |
| 20260905035017 | 23 | 0 | 0.0 | 0.0 | 0.00 | 0.00 | 0.00 | 94 | 1011.6 |
| 20260905034535 | 22 | 0 | 0.0 | 0.0 | 0.00 | 0.00 | 0.00 | 94 | 1011.6 |
| 20260905034016 | 22 | 0 | 0.0 | 0.0 | 0.00 | 0.00 | 0.00 | 94 | 1011.6 |
| 20260905033519 | 22 | 0 | 0.0 | 0.0 | 0.00 | 0.00 | 0.00 | 94 | 1011.6 |
| 20260905033035 | 22 | 0 | 0.0 | 0.0 | 0.00 | 0.00 | 0.00 | 94 | 1011.6 |
| 20260905032518 | 22 | 0 | 0.0 | 0.0 | 0.00 | 0.00 | 0.00 | 94 | 1011.7 |
| 20260905032019 | 23 | 0 | 0.0 | 0.0 | 0.00 | 0.00 | 0.00 | 94 | 1011.6 |
| 20260905031542 | 23 | 0 | 0.0 | 0.0 | 0.00 | 0.00 | 0.00 | 94 | 1011.6 |
| 20260905031016 | 23 | 0 | 0.0 | 0.0 | 0.00 | 0.00 | 0.00 | 94 | 1011.6 |
| 20260905030516 | 23 | 0 | 0.0 | 0.0 | 0.00 | 0.00 | 0.00 | 94 | 1011.6 |
| 20260905030035 | 23 | 0 | 0.0 | 0.0 | 0.00 | 0.00 | 0.00 | 94 | 1011.7 |
| 20260905025515 | 23 | 0 | 0.0 | 0.0 | 0.00 | 0.00 | 0.00 | 94 | 1011.7 |
| 20260905025017 | 23 | 0 | 0.0 | 0.0 | 0.00 | 0.00 | 0.00 | 94 | 1011.6 |
| 20260905024535 | 23 | 0 | 0.0 | 0.0 | 0.00 | 0.00 | 0.00 | 94 | 1011.6 |
| 20260905024017 | 23 | 0 | 0.0 | 0.0 | 0.00 | 0.00 | 0.00 | 94 | 1011.6 |
| 20260905023519 | 23 | 0 | 0.0 | 0.0 | 0.00 | 0.00 | 0.00 | 94 | 1011.5 |
| 20260905023130 | 23 | 0 | 0.0 | 0.0 | 0.00 | 0.00 | 0.00 | 94 | 1011.5 |
| 20260905022516 | 23 | 0 | 0.0 | 0.0 | 0.00 | 0.00 | 0.00 | 94 | 1011.5 |
| 20260905022017 | 23 | 0 | 0.0 | 0.0 | 0.00 | 0.00 | 0.00 | 93 | 1011.5 |
| 20260905021536 | 23 | 0 | 0.0 | 0.0 | 0.00 | 0.00 | 0.00 | 93 | 1011.5 |
| 20260905021016 | 23 | 0 | 0.0 | 0.0 | 0.00 | 0.00 | 0.00 | 93 | 1011.5 |
| 20260905020518 | 23 | 0 | 0.0 | 0.0 | 0.00 | 0.00 | 0.00 | 93 | 1011.6 |
| 20260905020045 | 23 | 0 | 0.0 | 0.0 | 0.00 | 0.00 | 0.00 | 93 | 1011.6 |
| 20260905015517 | 23 | 0 | 0.0 | 0.0 | 0.00 | 0.00 | 0.00 | 93 | 1011.6 |
| 20260905015020 | 23 | 0 | 0.0 | 0.0 | 0.00 | 0.00 | 0.00 | 93 | 1011.6 |
| 20260905014534 | 23 | 0 | 0.0 | 0.0 | 0.00 | 0.00 | 0.00 | 93 | 1011.6 |
| 20260905014018 | 23 | 0 | 0.0 | 0.0 | 0.00 | 0.00 | 0.00 | 93 | 1011.6 |
| 20260905013519 | 23 | 0 | 0.0 | 0.0 | 0.00 | 0.00 | 0.00 | 93 | 1011.6 |
| 20260905013046 | 23 | 0 | 0.0 | 0.0 | 0.00 | 0.00 | 0.00 | 93 | 1011.6 |
| 20260905012516 | 23 | 0 | 0.0 | 0.0 | 0.00 | 0.00 | 0.00 | 93 | 1011.6 |
| 20260905012016 | 23 | 0 | 0.0 | 0.0 | 0.00 | 0.00 | 0.00 | 93 | 1011.6 |
| 20260905011605 | 23 | 0 | 0.0 | 0.0 | 0.00 | 0.00 | 0.00 | 93 | 1011.6 |
| 20260905011018 | 23 | 0 | 0.0 | 0.0 | 0.00 | 0.00 | 0.00 | 93 | 1011.6 |
| 20260905010518 | 23 | 0 | 0.0 | 0.0 | 0.00 | 0.00 | 0.00 | 93 | 1011.7 |
| 20260905010036 | 23 | 0 | 0.0 | 0.0 | 0.00 | 0.00 | 0.00 | 93 | 1011.7 |
| 20260905005517 | 23 | 0 | 0.0 | 0.0 | 0.00 | 0.00 | 0.00 | 92 | 1011.7 |
| 20260905005018 | 23 | 0 | 0.0 | 0.0 | 0.00 | 0.00 | 0.00 | 92 | 1011.6 |
| 20260905004535 | 23 | 0 | 0.0 | 0.0 | 0.00 | 0.00 | 0.00 | 92 | 1011.6 |
| 20260905004019 | 23 | 0 | 0.0 | 0.0 | 0.00 | 0.00 | 0.00 | 92 | 1011.5 |
| 20260905003517 | 23 | 0 | 0.0 | 0.0 | 0.00 | 0.00 | 0.00 | 92 | 1011.5 |
| 20260905003039 | 23 | 0 | 0.0 | 0.0 | 0.00 | 0.00 | 0.00 | 92 | 1011.5 |
| 20260905002517 | 23 | 0 | 0.0 | 0.0 | 0.00 | 0.00 | 0.00 | 91 | 1011.4 |
| 20260905002018 | 23 | 0 | 0.0 | 0.0 | 0.00 | 0.00 | 0.00 | 91 | 1011.2 |
| 20260905001545 | 23 | 0 | 0.0 | 0.0 | 0.00 | 0.00 | 0.00 | 91 | 1011.1 |
| 20260905001019 | 23 | 0 | 0.0 | 0.0 | 0.00 | 0.00 | 0.00 | 90 | 1011.0 |
| 20260905000516 | 23 | 0 | 0.0 | 0.0 | 0.00 | 0.00 | 0.00 | 90 | 1010.9 |
| 20260905000034 | 23 | 0 | 0.0 | 0.0 | 0.00 | 0.00 | 0.00 | 90 | 1011.0 |
| 20260904235617 | 23 | 0 | 0.0 | 0.0 | 0.00 | 0.00 | 0.00 | 89 | 1011.0 |
| 20260904235021 | 24 | 0 | 0.0 | 0.0 | 0.00 | 0.00 | 0.00 | 89 | 1011.0 |
| 20260904234538 | 24 | 0 | 0.0 | 0.0 | 0.00 | 0.00 | 0.00 | 89 | 1011.1 |
| 20260904234017 | 24 | 0 | 0.0 | 0.0 | 0.00 | 0.00 | 0.00 | 89 | 1011.2 |
| 20260904233519 | 24 | 0 | 0.0 | 0.0 | 0.00 | 0.00 | 0.00 | 88 | 1011.2 |
| 20260904233100 | 25 | 0 | 0.0 | 0.0 | 0.00 | 0.00 | 0.00 | 87 | 1011.2 |
| 20260904232518 | 25 | 0 | 0.0 | 0.0 | 0.00 | 0.00 | 0.00 | 87 | 1011.2 |
| 20260904232018 | 25 | 0 | 0.0 | 0.0 | 0.00 | 0.00 | 0.00 | 88 | 1011.2 |
| 20260904231534 | 25 | 0 | 0.0 | 0.0 | 0.00 | 0.00 | 0.00 | 87 | 1011.3 |
| 20260904231018 | 25 | 0 | 0.0 | 0.0 | 0.00 | 0.00 | 0.00 | 88 | 1011.3 |
| 20260904230517 | 25 | 0 | 0.0 | 0.0 | 0.00 | 0.00 | 0.00 | 88 | 1011.4 |
| 20260904230036 | 25 | 0 | 0.0 | 0.0 | 0.00 | 0.00 | 0.00 | 88 | 1011.3 |
| 20260904225522 | 25 | 0 | 0.0 | 0.0 | 0.00 | 0.00 | 0.00 | 88 | 1011.4 |
| 20260904225017 | 25 | 0 | 0.0 | 1.6 | 0.00 | 0.00 | 0.00 | 87 | 1011.4 |
| 20260904224533 | 25 | 0 | 0.0 | 1.6 | 0.00 | 0.00 | 0.00 | 87 | 1011.4 |
| 20260904224017 | 26 | 0 | 0.0 | 1.6 | 0.00 | 0.00 | 0.00 | 87 | 1011.4 |
| 20260904223517 | 26 | 0 | 0.0 | 0.0 | 0.00 | 0.00 | 0.00 | 86 | 1011.4 |
| 20260904223035 | 26 | 0 | 0.0 | 1.6 | 0.00 | 0.00 | 0.00 | 85 | 1011.5 |
| 20260904222519 | 26 | 0 | 0.0 | 1.6 | 0.00 | 0.00 | 0.00 | 85 | 1011.4 |
| 20260904222017 | 26 | 0 | 0.0 | 1.6 | 0.00 | 0.00 | 0.00 | 83 | 1011.3 |
| 20260904221534 | 26 | 0 | 0.0 | 1.6 | 0.00 | 0.00 | 0.00 | 83 | 1011.4 |
| 20260904221017 | 26 | 0 | 0.0 | 1.6 | 0.00 | 0.00 | 0.00 | 83 | 1011.4 |
| 20260904220519 | 26 | 0 | 0.0 | 1.6 | 0.00 | 0.00 | 0.00 | 83 | 1011.4 |
| 20260904220036 | 26 | 0 | 0.0 | 1.6 | 0.00 | 0.00 | 0.00 | 83 | 1011.4 |
| 20260904215520 | 26 | 0 | 0.0 | 1.6 | 0.00 | 0.00 | 0.00 | 82 | 1011.4 |
| 20260904215017 | 27 | 0 | 0.0 | 1.6 | 0.00 | 0.00 | 0.00 | 82 | 1011.5 |
| 20260904214532 | 27 | 0 | 0.0 | 1.6 | 0.00 | 0.00 | 0.00 | 82 | 1011.5 |
| 20260904214018 | 27 | 0 | 0.0 | 1.6 | 0.00 | 0.00 | 0.00 | 82 | 1011.4 |
| 20260904213518 | 27 | 0 | 0.0 | 1.6 | 0.00 | 0.00 | 0.00 | 82 | 1011.5 |
| 20260904213034 | 27 | 0 | 0.0 | 3.2 | 0.00 | 0.00 | 0.00 | 80 | 1011.4 |
| 20260904212519 | 27 | 0 | 0.0 | 4.8 | 0.00 | 0.00 | 0.00 | 80 | 1011.4 |
| 20260904212016 | 27 | 0 | 0.0 | 4.8 | 0.00 | 0.00 | 0.00 | 79 | 1011.3 |
| 20260904211534 | 27 | 279 | 0.0 | 4.8 | 0.00 | 0.00 | 0.00 | 79 | 1011.2 |
| 20260904211021 | 27 | 0 | 0.0 | 3.2 | 0.00 | 0.00 | 0.00 | 77 | 1011.3 |
| 20260904210517 | 27 | 0 | 0.0 | 3.2 | 0.00 | 0.00 | 0.00 | 77 | 1011.3 |
| 20260904210104 | 27 | 0 | 0.0 | 1.6 | 0.00 | 0.00 | 0.00 | 80 | 1011.3 |
| 20260904205520 | 27 | 0 | 0.0 | 1.6 | 0.00 | 0.00 | 0.00 | 79 | 1011.4 |
| 20260904205017 | 28 | 0 | 0.0 | 1.6 | 0.00 | 0.00 | 0.00 | 76 | 1011.4 |
| 20260904204534 | 28 | 0 | 0.0 | 1.6 | 0.00 | 0.00 | 0.00 | 74 | 1011.4 |
| 20260904204020 | 28 | 0 | 0.0 | 3.2 | 0.00 | 0.00 | 0.00 | 74 | 1011.4 |
| 20260904203603 | 28 | 0 | 0.0 | 3.2 | 0.00 | 0.00 | 0.00 | 73 | 1011.4 |
| 20260904203036 | 28 | 0 | 0.0 | 3.2 | 0.00 | 0.00 | 0.00 | 74 | 1011.3 |
| 20260904202517 | 28 | 14 | 0.0 | 3.2 | 0.00 | 0.00 | 0.00 | 72 | 1011.3 |
| 20260904202016 | 28 | 0 | 0.0 | 3.2 | 0.00 | 0.00 | 0.00 | 71 | 1011.4 |
| 20260904201534 | 28 | 294 | 0.0 | 6.4 | 0.00 | 0.00 | 0.00 | 71 | 1011.4 |
| 20260904201016 | 28 | 0 | 0.0 | 6.4 | 0.00 | 0.00 | 0.00 | 70 | 1011.4 |
| 20260904200516 | 29 | 146 | 0.0 | 6.4 | 0.00 | 0.00 | 0.00 | 67 | 1011.5 |
| 20260904200034 | 30 | 0 | 0.0 | 9.7 | 0.00 | 0.00 | 0.00 | 68 | 1011.5 |
| 20260904195518 | 29 | 22 | 1.6 | 9.7 | 0.00 | 0.00 | 0.00 | 66 | 1011.5 |
| 20260904195017 | 29 | 0 | 0.0 | 4.8 | 0.00 | 0.00 | 0.00 | 69 | 1011.5 |
| 20260904194547 | 30 | 0 | 0.0 | 4.8 | 0.00 | 0.00 | 0.00 | 66 | 1011.6 |
| 20260904194017 | 30 | 232 | 0.0 | 3.2 | 0.00 | 0.00 | 0.00 | 69 | 1011.7 |
| 20260904193519 | 30 | 269 | 0.0 | 9.7 | 0.00 | 0.00 | 0.00 | 65 | 1011.7 |
| 20260904193037 | 30 | 0 | 0.0 | 9.7 | 0.00 | 0.00 | 0.00 | 68 | 1011.9 |
| 20260904192516 | 30 | 199 | 0.0 | 11.3 | 0.00 | 0.00 | 0.00 | 65 | 1011.9 |
| 20260904192019 | 30 | 0 | 1.6 | 11.3 | 0.00 | 0.00 | 0.00 | 62 | 1012.0 |
| 20260904191534 | 30 | 0 | 1.6 | 6.4 | 0.00 | 0.00 | 0.00 | 67 | 1012.2 |
| 20260904191018 | 30 | 0 | 0.0 | 6.4 | 0.00 | 0.00 | 0.00 | 72 | 1012.0 |
| 20260904190520 | 28 | 265 | 0.0 | 4.8 | 0.00 | 0.00 | 0.00 | 73 | 1012.0 |
| 20260904190036 | 28 | 0 | 0.0 | 3.2 | 0.00 | 0.00 | 0.00 | 76 | 1012.0 |
| 20260904185519 | 29 | 0 | 0.0 | 3.2 | 0.00 | 0.00 | 0.00 | 71 | 1012.1 |
| 20260904185017 | 29 | 0 | 0.0 | 4.8 | 0.00 | 0.00 | 0.00 | 69 | 1012.1 |
| 20260904184537 | 29 | 311 | 0.0 | 4.8 | 0.00 | 0.00 | 0.00 | 72 | 1012.2 |
| 20260904184019 | 29 | 242 | 0.0 | 3.2 | 0.00 | 0.00 | 0.00 | 71 | 1012.2 |
| 20260904183519 | 29 | 243 | 0.0 | 3.2 | 0.00 | 0.00 | 0.00 | 70 | 1012.2 |
| 20260904183047 | 28 | 284 | 0.0 | 3.2 | 0.00 | 0.00 | 0.00 | 73 | 1012.3 |
| 20260904182516 | 28 | 0 | 0.0 | 1.6 | 0.00 | 0.00 | 0.00 | 71 | 1012.3 |
| 20260904182025 | 30 | 201 | 0.0 | 6.4 | 0.00 | 0.00 | 0.00 | 66 | 1012.3 |
| 20260904181550 | 30 | 0 | 0.0 | 6.4 | 0.00 | 0.00 | 0.00 | 68 | 1012.3 |
| 20260904181015 | 30 | 98 | 0.0 | 4.8 | 0.00 | 0.00 | 0.00 | 66 | 1012.3 |
| 20260904180522 | 30 | 0 | 0.0 | 3.2 | 0.00 | 0.00 | 0.00 | 67 | 1012.3 |
| 20260904180033 | 29 | 347 | 0.0 | 4.8 | 0.00 | 0.00 | 0.00 | 68 | 1012.3 |
| 20260904175517 | 30 | 360 | 0.0 | 4.8 | 0.00 | 0.00 | 0.00 | 66 | 1012.2 |
| 20260904175017 | 30 | 12 | 1.6 | 6.4 | 0.00 | 0.00 | 0.00 | 67 | 1012.2 |
| 20260904174536 | 30 | 0 | 1.6 | 6.4 | 0.00 | 0.00 | 0.00 | 63 | 1012.3 |
| 20260904174019 | 30 | 193 | 1.6 | 6.4 | 0.00 | 0.00 | 0.00 | 67 | 1012.4 |
| 20260904173519 | 30 | 264 | 3.2 | 6.4 | 0.00 | 0.00 | 0.00 | 68 | 1012.5 |
| 20260904173037 | 30 | 138 | 1.6 | 6.4 | 0.00 | 0.00 | 0.00 | 68 | 1012.5 |
| 20260904172616 | 29 | 271 | 0.0 | 6.4 | 0.00 | 0.00 | 0.00 | 70 | 1012.4 |
| 20260904172020 | 30 | 263 | 1.6 | 9.7 | 0.00 | 0.00 | 0.00 | 69 | 1012.5 |
| 20260904171539 | 30 | 223 | 1.6 | 9.7 | 0.00 | 0.00 | 0.00 | 67 | 1012.5 |
| 20260904171016 | 30 | 0 | 0.0 | 9.7 | 0.00 | 0.00 | 0.00 | 72 | 1012.6 |
| 20260904170516 | 30 | 252 | 1.6 | 9.7 | 0.00 | 0.00 | 0.00 | 72 | 1012.5 |
| 20260904170036 | 30 | 336 | 1.6 | 8.0 | 0.00 | 0.00 | 0.00 | 68 | 1012.4 |
| 20260904165522 | 29 | 0 | 1.6 | 9.7 | 0.00 | 0.00 | 0.00 | 67 | 1012.5 |
| 20260904165019 | 29 | 0 | 1.6 | 9.7 | 0.00 | 0.00 | 0.00 | 69 | 1012.5 |
| 20260904164540 | 29 | 360 | 1.6 | 9.7 | 0.00 | 0.00 | 0.00 | 69 | 1012.4 |
| 20260904164019 | 29 | 9 | 0.0 | 3.2 | 0.00 | 0.00 | 0.00 | 73 | 1012.5 |
| 20260904163519 | 29 | 243 | 0.0 | 4.8 | 0.00 | 0.00 | 0.00 | 71 | 1012.4 |
| 20260904163035 | 29 | 12 | 0.0 | 4.8 | 0.00 | 0.00 | 0.00 | 73 | 1012.4 |
| 20260904162518 | 30 | 269 | 1.6 | 4.8 | 0.00 | 0.00 | 0.00 | 70 | 1012.5 |
| 20260904162018 | 29 | 0 | 0.0 | 4.8 | 0.00 | 0.00 | 0.00 | 68 | 1012.5 |
| 20260904161537 | 30 | 140 | 0.0 | 4.8 | 0.00 | 0.00 | 0.00 | 74 | 1012.5 |
| 20260904161016 | 29 | 9 | 1.6 | 6.4 | 0.00 | 0.00 | 0.00 | 72 | 1012.7 |
| 20260904160559 | 29 | 305 | 1.6 | 6.4 | 0.00 | 0.00 | 0.00 | 74 | 1012.7 |
| 20260904160033 | 28 | 245 | 1.6 | 6.4 | 0.00 | 0.00 | 0.00 | 73 | 1012.8 |
| 20260904155529 | 29 | 105 | 1.6 | 6.4 | 0.00 | 0.00 | 0.00 | 70 | 1012.8 |
| 20260904155017 | 28 | 300 | 0.0 | 4.8 | 0.00 | 0.00 | 0.00 | 73 | 1012.9 |
| 20260904154544 | 28 | 230 | 1.6 | 6.4 | 0.00 | 0.00 | 0.00 | 75 | 1012.9 |
| 20260904154022 | 28 | 0 | 0.0 | 6.4 | 0.00 | 0.00 | 0.00 | 74 | 1012.9 |
| 20260904153517 | 28 | 0 | 1.6 | 6.4 | 0.00 | 0.00 | 0.00 | 74 | 1012.8 |
| 20260904153036 | 28 | 288 | 1.6 | 6.4 | 0.00 | 0.00 | 0.00 | 73 | 1012.9 |
| 20260904152518 | 28 | 250 | 1.6 | 9.7 | 0.00 | 0.00 | 0.00 | 74 | 1012.9 |
| 20260904152017 | 28 | 360 | 1.6 | 9.7 | 0.00 | 0.00 | 0.00 | 75 | 1012.9 |
| 20260904151536 | 28 | 132 | 1.6 | 6.4 | 0.00 | 0.00 | 0.00 | 75 | 1012.8 |
| 20260904151020 | 28 | 78 | 1.6 | 6.4 | 0.00 | 0.00 | 0.00 | 77 | 1012.9 |
| 20260904150517 | 28 | 307 | 1.6 | 6.4 | 0.00 | 0.00 | 0.00 | 76 | 1012.9 |
| 20260904150034 | 28 | 267 | 1.6 | 6.4 | 0.00 | 0.00 | 0.00 | 76 | 1012.9 |
| 20260904145520 | 28 | 285 | 1.6 | 9.7 | 0.00 | 0.00 | 0.00 | 76 | 1013.1 |
| 20260904145020 | 28 | 5 | 0.0 | 9.7 | 0.00 | 0.00 | 0.00 | 79 | 1013.0 |
| 20260904144554 | 27 | 56 | 1.6 | 8.0 | 0.00 | 0.00 | 0.00 | 77 | 1012.9 |
| 20260904144019 | 27 | 330 | 0.0 | 6.4 | 0.00 | 0.00 | 0.00 | 79 | 1012.9 |
| 20260904143519 | 27 | 325 | 1.6 | 4.8 | 0.00 | 0.00 | 0.00 | 78 | 1012.9 |
| 20260904143037 | 27 | 260 | 0.0 | 6.4 | 0.00 | 0.00 | 0.00 | 79 | 1012.9 |
| 20260904142522 | 27 | 290 | 0.0 | 9.7 | 0.00 | 0.00 | 0.00 | 80 | 1012.9 |
| 20260904142019 | 27 | 0 | 0.0 | 9.7 | 0.00 | 0.00 | 0.00 | 80 | 1013.0 |
| 20260904141532 | 27 | 0 | 0.0 | 4.8 | 0.00 | 0.00 | 0.00 | 80 | 1013.0 |
| 20260904141017 | 26 | 340 | 0.0 | 8.0 | 0.00 | 0.00 | 0.00 | 80 | 1013.0 |
| 20260904140524 | 26 | 0 | 1.6 | 11.3 | 0.00 | 0.00 | 0.00 | 80 | 1012.9 |
| 20260904140044 | 26 | 30 | 0.0 | 11.3 | 0.00 | 0.00 | 0.00 | 81 | 1013.0 |
| 20260904135518 | 26 | 263 | 1.6 | 8.0 | 0.00 | 0.00 | 0.00 | 81 | 1012.9 |
| 20260904135017 | 26 | 0 | 1.6 | 4.8 | 0.00 | 0.00 | 0.00 | 82 | 1013.0 |
| 20260904134536 | 26 | 0 | 0.0 | 4.8 | 0.00 | 0.00 | 0.00 | 83 | 1012.9 |
| 20260904134018 | 26 | 0 | 1.6 | 4.8 | 0.00 | 0.00 | 0.00 | 83 | 1012.9 |
| 20260904133518 | 26 | 348 | 1.6 | 4.8 | 0.00 | 0.00 | 0.00 | 83 | 1012.9 |
| 20260904133123 | 26 | 0 | 0.0 | 4.8 | 0.00 | 0.00 | 0.00 | 83 | 1012.9 |
| 20260904132516 | 25 | 256 | 0.0 | 4.8 | 0.00 | 0.00 | 0.00 | 84 | 1012.9 |
| 20260904132020 | 25 | 63 | 0.0 | 6.4 | 0.00 | 0.00 | 0.00 | 85 | 1012.7 |
| 20260904131532 | 25 | 198 | 1.6 | 8.0 | 0.00 | 0.00 | 0.00 | 84 | 1012.7 |
| 20260904131019 | 25 | 279 | 1.6 | 8.0 | 0.00 | 0.00 | 0.00 | 84 | 1012.8 |
| 20260904130519 | 25 | 0 | 1.6 | 8.0 | 0.00 | 0.00 | 0.00 | 85 | 1012.8 |
| 20260904130054 | 25 | 265 | 0.0 | 4.8 | 0.00 | 0.00 | 0.00 | 85 | 1012.9 |
| 20260904125518 | 25 | 329 | 0.0 | 6.4 | 0.00 | 0.00 | 0.00 | 86 | 1012.9 |
| 20260904125019 | 25 | 0 | 1.6 | 6.4 | 0.00 | 0.00 | 0.00 | 87 | 1013.0 |
| 20260904124534 | 25 | 13 | 0.0 | 6.4 | 0.00 | 0.00 | 0.00 | 88 | 1013.0 |
| 20260904124017 | 24 | 0 | 1.6 | 6.4 | 0.00 | 0.00 | 0.00 | 88 | 1013.1 |